#timestamp,LO_Frequency,Hit,StdDev 
1525518015.9,286046997.2,N
1525518035.7,286046997.3,N
1525518055.5,286046996.8,N
1525518075.4,286046997.7,N
1525518095.2,286046995.3,Y
1525518115.0,286046998.7,P
1525518115.9,286046998.7,N
1525518135.8,286047001.2,N
1525518155.6,286046999.9,N
1525518175.5,286047000.0,N
1525518195.3,286047000.7,N
1525518215.1,286047000.9,N
1525518235.9,286046998.4,N
1525518255.7,286046996.9,N
1525518275.5,286046999.6,N
1525518295.4,286046997.2,N
1525518315.2,286046999.5,N
1525518335.1,286046999.2,N
1525518336.0,286046999.2,N
1525518355.8,286046998.2,N
1525518375.6,286047000.8,N
1525518395.5,286046998.5,N
1525518415.3,286046998.4,N
1525518435.2,286047000.9,N
1525518455.9,286047000.6,N
1525518475.7,286047000.4,N
1525518495.6,286047001.2,N
1525518515.4,286046998.8,N
1525518535.3,286046996.6,N
1525518555.1,286046999.4,N
1525518556.0,286046999.4,N
1525518575.8,286046999.5,N
1525518595.7,286046997.0,N
1525518615.5,286046999.4,N
1525518635.3,286046997.3,N
1525518655.2,286046997.0,N
1525518675.0,286046999.6,N
1525518675.9,286046999.6,N
1525518695.8,286046999.6,N
1525518715.6,286047000.9,N
1525518735.4,286046998.1,N
1525518755.3,286047001.1,N
1525518775.1,286046998.5,N
1525518795.8,286047001.0,N
1525518815.7,286046998.1,N
1525518835.5,286046998.6,N
1525518855.4,286046998.3,N
1525518875.2,286046999.2,N
1525518895.0,286046999.0,N
1525518895.9,286046999.0,N
1525518915.8,286046998.1,N
1525518935.6,286046998.4,N
1525518955.5,286047001.1,N
1525518975.3,286047000.6,N
1525518995.1,286047002.3,N
1525519015.9,286046998.1,N
1525519035.7,286047000.7,N
1525519055.5,286047000.7,N
1525519075.4,286046999.9,N
1525519095.2,286047000.4,N
1525519115.1,286047002.2,N
1525519116.0,286047002.2,N
1525519135.8,286047001.3,N
1525519155.6,286047002.5,N
1525519175.5,286047004.3,N
1525519195.3,286047004.4,N
1525519215.1,286047000.3,N
1525519235.9,286046999.9,N
1525519255.7,286046999.8,N
1525519275.6,286047000.7,N
1525519295.4,286047000.4,N
1525519315.2,286047002.4,N
1525519335.1,286047001.3,N
1525519336.0,286047001.3,N
1525519355.8,286047002.2,N
1525519375.7,286047001.6,N
1525519395.5,286047002.2,N
1525519415.3,286047000.0,N
1525519435.2,286047002.2,N
1525519455.9,286047001.6,N
1525519475.7,286047005.9,Y
1525519495.6,286047004.4,P
1525519515.4,286047003.9,N
1525519535.3,286047002.7,N
1525519555.1,286047002.7,N
1525519556.0,286047002.7,N
1525519575.8,286047004.4,Y
1525519595.7,286046999.4,P
1525519615.5,286046995.3,N
1525519635.4,286046995.2,N
1525519655.2,286046996.6,N
1525519675.0,286046999.2,N
1525519675.9,286046999.2,N
1525519695.8,286046996.5,N
1525519715.6,286046998.0,N
1525519735.4,286046997.9,N
1525519755.3,286046997.1,N
1525519775.1,286046996.1,N
1525519795.9,286046997.4,N
1525519815.7,286046997.2,N
1525519835.5,286046996.7,N
1525519855.4,286046997.6,N
1525519875.2,286046996.9,N
1525519895.0,286046998.4,N
1525519895.9,286046998.4,N
1525519915.8,286046996.9,N
1525519935.6,286046999.5,N
1525519955.5,286046998.1,N
1525519975.3,286046999.1,N
1525519995.1,286046997.0,N
1525520015.9,286046999.2,N
1525520035.7,286046997.4,N
1525520055.5,286046995.1,Y
1525520075.4,286046998.3,P
1525520095.2,286046998.5,P
1525520115.1,286047000.5,N
1525520116.0,286047000.5,N
1525520135.8,286047001.0,N
1525520155.6,286047000.0,N
1525520175.5,286047002.6,N
1525520195.3,286047001.6,N
1525520215.2,286047002.5,N
1525520235.9,286046999.7,N
1525520255.7,286047000.1,N
1525520275.6,286046999.7,N
1525520295.4,286047002.6,N
1525520315.2,286046999.8,N
1525520335.1,286047001.0,N
1525520336.0,286047001.0,N
1525520355.8,286047000.3,N
1525520375.7,286046999.7,N
1525520395.5,286047002.2,N
1525520415.3,286047000.2,N
1525520435.2,286047002.3,N
1525520455.0,286047000.2,N
1525520455.9,286047000.2,N
1525520475.8,286046998.5,N
1525520495.6,286046998.5,N
1525520515.4,286047000.7,N
1525520535.3,286047000.7,N
1525520555.1,286046998.2,N
1525520575.8,286047001.1,N
1525520595.7,286046998.3,N
1525520615.5,286046999.2,N
1525520635.4,286046998.7,N
1525520655.2,286047001.1,N
1525520675.0,286047001.1,N
1525520675.9,286047001.1,N
1525520695.8,286046998.5,N
1525520715.6,286046998.9,N
1525520735.5,286047001.2,N
1525520755.3,286047002.1,N
1525520775.1,286046998.1,N
1525520795.9,286046998.1,N
1525520815.7,286046998.3,N
1525520835.6,286047001.1,N
1525520855.4,286047000.0,N
1525520875.2,286046998.1,N
1525520895.1,286047000.5,N
1525520896.0,286047000.5,N
1525520915.8,286047000.4,N
1525520935.6,286047000.9,N
1525520955.5,286047002.4,N
1525520975.3,286047001.9,N
1525520995.2,286047002.8,N
1525521015.9,286047002.1,N
1525521035.7,286047001.5,N
1525521055.6,286047002.6,N
1525521075.4,286047001.3,N
1525521095.2,286047001.3,N
1525521115.1,286047001.7,N
1525521116.0,286047001.7,N
1525521135.8,286047002.0,N
1525521155.7,286047001.5,N
1525521175.5,286047001.9,N
1525521195.3,286046999.9,N
1525521215.2,286047000.3,N
1525521235.0,286047000.2,N
1525521235.9,286047000.2,N
1525521255.7,286047002.8,N
1525521275.6,286047001.0,N
1525521295.4,286047000.8,N
1525521315.3,286046999.1,N
1525521335.1,286046998.7,N
1525521336.0,286046998.7,N
1525521355.8,286046999.0,N
1525521375.7,286047000.0,N
1525521395.5,286047000.6,N
1525521415.3,286047000.1,N
1525521435.2,286047000.2,N
1525521455.0,286047000.8,N
1525521455.9,286047000.8,N
1525521475.8,286046998.4,N
1525521495.6,286047000.0,N
1525521515.4,286047000.9,N
1525521535.3,286047000.8,N
1525521555.1,286046998.2,N
1525521575.9,286047001.2,N
1525521595.7,286046999.3,N
